This demonstration page uses our WeatherBlox Daily Observations layout. Learn more.

Left ArrowRight Arrow

Hourly Observations for February 17, 2016

Temp ( °F °C ) Dew Point ( °F °C ) Humidity (%) Winds ( mph kmh ) Pressure ( in mb ) Visibility ( mi km ) Precip ( " mm )
12:53 am 00:53 Clear 25 -3.9 21 -6.1 85 85 SW 5 7 29.86 1011 10 16 0.00 0.00
1:53 am 01:53 Clear 27 -2.8 22 -5.6 81 81 Calm 29.86 1011 10 16 0.00 0.00
2:53 am 02:53 Clear 27 -2.8 23 -5 85 85 SW 3 6 29.86 1011 10 16 0.00 0.00
3:53 am 03:53 Clear 28 -2.2 25 -3.9 88 88 W 6 9 29.85 1011 10 16 0.00 0.00
4:53 am 04:53 Clear 27 -2.8 24 -4.4 89 89 WSW 7 11 29.85 1011 10 16 0.00 0.00
5:53 am 05:53 Clear 22 -5.6 20 -6.7 92 92 E 3 6 29.87 1011 10 16 0.00 0.00
6:53 am 06:53 Clear 21 -6.1 19 -7.2 92 92 ESE 5 7 29.87 1012 10 16 0.00 0.00
7:53 am 07:53 Sunny 22 -5.6 21 -6.1 96 96 SE 3 6 29.88 1012 10 16 0.00 0.00
8:53 am 08:53 Sunny 27 -2.8 25 -3.9 92 92 Calm 29.87 1011 10 16 0.00 0.00
9:53 am 09:53 Sunny 34 1.1 29 -1.7 82 82 ENE 6 9 29.84 1010 10 16 0.00 0.00
10:53 am 10:53 Sunny 38 3.3 31 -0.6 76 76 E 8 13 29.81 1010 10 16 0.00 0.00
11:53 am 11:53 Sunny 42 5.6 31 -0.6 65 65 ENE 10 17 29.78 1009 10 16 0.00 0.00
12:53 pm 12:53 Sunny 46 7.8 31 -0.6 56 56 E 12 19 29.73 1007 10 16 0.00 0.00
1:53 pm 13:53 Partly Cloudy 47 8.3 31 -0.6 54 54 ENE 10 17 29.68 1005 10 16 0.00 0.00
2:53 pm 14:53 Mostly Cloudy 47 8.3 32 0 56 56 E 8 13 29.67 1005 10 16 0.00 0.00
3:53 pm 15:53 Partly Cloudy 47 8.3 32 0 56 56 ENE 9 15 29.64 1004 10 16 0.00 0.00
4:53 pm 16:53 Mostly Sunny 45 7.2 33 0.6 63 63 ENE 9 15 29.61 1003 10 16 0.00 0.00
5:53 pm 17:53 Mostly Clear 43 6.1 32 0 65 65 ENE 10 17 29.58 1002 10 16 0.00 0.00
6:53 pm 18:53 Mostly Clear 41 5 33 0.6 73 73 ENE 13 20 29.56 1001 10 16 0.00 0.00
7:53 pm 19:53 Partly Cloudy 40 4.4 34 1.1 79 79 ENE 14 22 29.54 1000 10 16 0.00 0.00
8:53 pm 20:53 Mostly Cloudy 38 3.3 34 1.1 86 86 ENE 10 17 29.51 999 10 16 0.00 0.00
9:53 pm 21:53 Mostly Clear 38 3.3 34 1.1 86 86 ENE 10 17 29.49 999 10 16 0.00 0.00
10:53 pm 22:53 Mostly Cloudy 36 2.2 34 1.1 93 93 ENE 8 13 29.47 998 10 16 0.00 0.00
11:53 pm 23:53 Clear 30 -1.1 29 -1.7 96 96 E 3 6 29.46 998 10 16 0.00 0.00

Powered by AerisWeather